Regional Weather Roundup
Issued by NWS

Home | Current Version | Previous Version | Graphics & Text | Print | Product List | Glossary On
Versions: 1 2 3 4 5 6 7 8 9 10 11 12 13 14 15 16 17 18 19 20 21 22 23 24 25 26 27 28 29 30 31 32 33 34 35 36 37 38 39 40 41 42 43 44 45 46 47 48 49 50
000
ASUS43 KFSD 150402
RWRSD

WEATHER ROUNDUP FOR SOUTH DAKOTA
NATIONAL WEATHER SERVICE SIOUX FALLS SD
1000 PM CST THU DEC 14 2017

NOTE: "FAIR" INDICATES FEW OR NO CLOUDS BELOW 12,000 FEET WITH NO
SIGNIFICANT WEATHER AND/OR OBSTRUCTIONS TO VISIBILITY.


SDZ001>005-009-010-012>017-150500-
NORTHWEST AND NORTH CENTRAL SOUTH DAKOTA

CITY           SKY/WX    TMP DP  RH WIND       PRES   REMARKS
BUFFALO          N/A     20  16  84 W13       29.99F WCI   7
FAITH            N/A     25  21  85 SW9       30.07F WCI  15
MOBRIDGE       CLOUDY    34  25  69 W8        30.04F WCI  27
$$

SDZ012>016-024>037-041>051-057-063-072>074-150500-
SOUTHWEST AND SOUTH CENTRAL SOUTH DAKOTA

CITY           SKY/WX    TMP DP  RH WIND       PRES   REMARKS
RAPID CTY ARPT CLOUDY    16  11  80 CALM      30.12F
PIERRE         CLOUDY    32  27  81 W10       30.10F WCI  24
CUSTER         CLOUDY    16  11  80 S5        30.06F WCI   9
ELLSWORTH AFB  CLOUDY    21  14  74 W5        30.11F WCI  15
PHILIP         CLEAR     29  26  89 W8        30.14F WCI  21
PINE RIDGE     CLEAR     22  18  85 SW3       30.16F
SPEARFISH      FAIR      30  18  59 W14       30.10F WCI  20
WINNER         CLOUDY    33  28  81 W10       30.14F WCI  25
$$

SDZ004>011-016>023-039-040-150500-
NORTHEAST SOUTH DAKOTA

CITY           SKY/WX    TMP DP  RH WIND       PRES   REMARKS
ABERDEEN       CLOUDY    30  26  85 W8        30.04F WCI  22
WATERTOWN      CLOUDY    26  24  92 W12       30.02F WCI  16
BROOKINGS      CLOUDY    26  23  88 W7        30.05F WCI  18
SISSETON         N/A     30  26  85 W13       29.99F WCI  20
$$

SDZ017-020-022-023-036>040-048>070-150500-
SOUTHEAST SOUTH DAKOTA

CITY           SKY/WX    TMP DP  RH WIND       PRES   REMARKS
SIOUX FALLS    CLOUDY    28  23  81 W7        30.09S WCI  21
HURON          CLOUDY    30  26  85 W8        30.09F WCI  22
CHAMBERLAIN    CLOUDY    32  30  91 SW6       30.12F WCI  26
MITCHELL       CLOUDY    30  25  81 W7        30.12F WCI  23
YANKTON        CLOUDY    29  26  89 NW6       30.14F WCI  23
$$

ABBREVIATIONS USED IN REMARKS
   TC - TEMPERATURE IN CELSIUS
  WCI - WIND CHILL INDEX
   HX - HEAT INDEX
  VSB - VISIBILITY





USA.gov is the U.S. government's official web portal to all federal, state and local government web resources and services.